Weather History for KMSN - December, 2011

Change the Weather History Date:

Tuesday, December 20, 2011

  Actual Average Record
Temperature  
Mean Temperature 29 °F 22 °F  
Max Temperature 36 °F 29 °F 62 °F (1877)
Min Temperature 22 °F 14 °F -17 °F (1963)
Degree Days  
Heating Degree Days 36 44  
Month to date heating degree days 661 809  
Since 1 July heating degree days 2013 2388  
Cooling Degree Days 0 0  
Month to date cooling degree days 0 0  
Year to date cooling degree days 814 568  
Moisture  
Dew Point 25 °F    
Average Humidity 85    
Maximum Humidity 100    
Minimum Humidity 69    
Precipitation  
Precipitation T in 0.04 in 1.16 in (2012)
Month to date precipitation 1.83 1.24  
Year to date precipitation 30.14 33.98  
Snow  
Snow T in 0.40 in 13.30 in (2012)
Month to date snowfall 1.3 8.8  
Since 1 July snowfall 2.9 12.9  
Snow Depth 0.00 in    
Sea Level Pressure  
Sea Level Pressure 30.05 in    
Wind  
Wind Speed 4 mph (SE)    
Max Wind Speed 10 mph    
Max Gust Speed 13 mph    
Visibility 9 miles    
Events      
T = Trace of Precipitation, MM = Missing Value Source: NWS Daily Summary

Daily Weather History Graph

Daily Weather History Graph

Search for Another Location

Airport or City:

Trip Planner

Search our weather history database for the weather conditions in past years. The results will help you decide how hot, cold, wet, or windy it might be!

Date:

Astronomy

Dec. 20, 2011 Rise Set
Actual Time 7:25 AM CST 4:24 PM CST
Civil Twilight 6:52 AM CST 4:57 PM CST
Nautical Twilight 6:16 AM CST 5:33 PM CST
Astronomical Twilight 5:42 AM CST 6:07 PM CST
Moon 2:42 AM CST (12/20) 1:03 PM CST (12/20)
Length of Visible Light 10h 04m
Length of Day
8h 59m
Waning Crescent, 21% of the Moon is Illuminated
Dec 20
Waning Crescent
Dec 24
New
Jan 1
First Quarter
Jan 9
Full
Jan 16
Last Quarter

Hourly Weather History & Observations

Time (CST) Temp. Windchill Dew Point Humidity Pressure Visibility Wind Dir Wind Speed Gust Speed Precip Events Conditions
12:53 AM 27.0 °F - 23.0 °F 85% 30.24 in 10.0 mi Calm Calm - N/A   Clear
1:53 AM 27.0 °F 23.0 °F 23.0 °F 85% 30.24 in 10.0 mi NNE 3.5 mph - N/A   Clear
2:53 AM 25.0 °F - 21.9 °F 88% 30.24 in 10.0 mi Calm Calm - N/A   Clear
3:53 AM 24.1 °F - 21.9 °F 91% 30.22 in 10.0 mi Calm Calm - N/A   Clear
4:53 AM 21.9 °F 17.2 °F 21.0 °F 96% 30.20 in 10.0 mi North 3.5 mph - N/A   Clear
5:53 AM 24.1 °F 19.7 °F 21.0 °F 88% 30.20 in 10.0 mi North 3.5 mph - N/A   Clear
6:53 AM 23.0 °F - 19.9 °F 88% 30.18 in 10.0 mi Calm Calm - N/A   Scattered Clouds
7:53 AM 23.0 °F - 19.9 °F 88% 30.17 in 10.0 mi Calm Calm - N/A   Clear
8:53 AM 26.1 °F 20.5 °F 21.9 °F 84% 30.14 in 10.0 mi North 4.6 mph - N/A   Mostly Cloudy
9:53 AM 30.9 °F 24.3 °F 25.0 °F 79% 30.14 in 10.0 mi SE 6.9 mph - N/A   Mostly Cloudy
10:53 AM 33.1 °F 27.7 °F 25.0 °F 72% 30.10 in 10.0 mi SE 5.8 mph - N/A   Scattered Clouds
11:53 AM 35.1 °F 30.1 °F 26.1 °F 70% 30.08 in 10.0 mi SE 5.8 mph - N/A   Scattered Clouds
12:53 PM 36.0 °F 29.6 °F 26.1 °F 67% 30.04 in 10.0 mi South 8.1 mph - N/A   Partly Cloudy
1:53 PM 36.0 °F 32.1 °F 27.0 °F 70% 30.00 in 10.0 mi South 4.6 mph - N/A   Mostly Cloudy
2:53 PM 36.0 °F 32.1 °F 27.0 °F 70% 29.98 in 10.0 mi South 4.6 mph - N/A   Mostly Cloudy
3:53 PM 35.1 °F 32.2 °F 27.0 °F 72% 29.96 in 10.0 mi SSE 3.5 mph - N/A   Overcast
4:53 PM 34.0 °F 29.8 °F 27.0 °F 75% 29.94 in 10.0 mi ESE 4.6 mph - N/A   Mostly Cloudy
5:53 PM 34.0 °F 31.0 °F 28.0 °F 79% 29.92 in 10.0 mi East 3.5 mph - 0.00 in   Overcast
6:53 PM 33.1 °F - 28.0 °F 82% 29.89 in 10.0 mi Calm Calm - N/A   Mostly Cloudy
7:53 PM 34.0 °F 29.8 °F 28.0 °F 79% 29.90 in 10.0 mi South 4.6 mph - N/A   Overcast
8:53 PM 34.0 °F 31.0 °F 28.9 °F 82% 29.88 in 10.0 mi South 3.5 mph - 0.00 in   Light Drizzle
9:53 PM 33.1 °F 26.9 °F 30.0 °F 89% 29.86 in 4.0 mi South 6.9 mph - 0.00 in   Light Drizzle
10:53 PM 33.1 °F 28.7 °F 30.9 °F 92% 29.82 in 6.0 mi South 4.6 mph - 0.00 in   Overcast
11:53 PM 34.0 °F 28.8 °F 30.9 °F 89% 29.78 in 6.0 mi South 5.8 mph - N/A   Overcast